Terminal Aerodrome Forecast
Issued by NWS

Home | Current Version | Previous Version | Text Only | Print | Product List | Glossary On
Versions: 1 2 3 4 5 6 7 8 9 10 11 12 13 14 15
000
FTUS42 KMHX 092328
TAFPGV
TAF
KPGV 092328Z 1000/1024 26007G15KT P6SM VCSH SCT040 OVC080
     FM100600 26006KT P6SM SKC
     FM101400 27010G17KT P6SM BKN045
      AMD LTD TO CLD VIS AND WIND=

USA.gov is the U.S. government's official web portal to all federal, state and local government web resources and services.